Time,TemperatureF,DewpointF,PressureIn,WindDirection,WindDirectionDegrees,WindSpeedMPH,WindSpeedGustMPH,Humidity,HourlyPrecipIn,Conditions,Clouds,dailyrainin,SoftwareType,DateUTC
2013-05-07 00:03:00,58.1,30.6,29.84,South,178,5.8,5.8,35,0.00,CLR,SCT,0.00,WeatherDisplay:10.37,2013-05-07 07:03:00,
2013-05-07 00:08:00,57.6,30.8,29.84,SSW,194,8.1,8.1,36,0.00,CLR,SCT,0.00,WeatherDisplay:10.37,2013-05-07 07:08:00,
2013-05-07 00:13:00,57.6,30.8,29.84,SSW,213,4.0,4.0,36,0.00,CLR,SCT,0.00,WeatherDisplay:10.37,2013-05-07 07:13:00,
2013-05-07 00:18:00,57.7,32.3,29.84,WSW,240,4.6,4.6,38,0.00,CLR,SCT,0.00,WeatherDisplay:10.37,2013-05-07 07:18:00,
2013-05-07 00:23:00,57.9,32.4,29.84,WSW,247,5.8,5.8,38,0.00,CLR,SCT,0.00,WeatherDisplay:10.37,2013-05-07 07:23:00,
2013-05-07 00:28:00,58.3,32.8,29.84,SW,229,5.8,5.8,38,0.00,CLR,SCT,0.00,WeatherDisplay:10.37,2013-05-07 07:28:00,
2013-05-07 00:33:00,58.6,33.7,29.84,SW,219,5.8,5.8,39,0.00,CLR,SCT,0.00,WeatherDisplay:10.37,2013-05-07 07:33:00,
2013-05-07 00:38:00,58.8,34.5,29.84,SW,214,5.8,5.8,40,0.00,CLR,SCT,0.00,WeatherDisplay:10.37,2013-05-07 07:38:00,
2013-05-07 00:44:00,58.8,34.5,29.84,SSW,207,5.8,5.8,40,0.00,CLR,SCT,0.00,WeatherDisplay:10.37,2013-05-07 07:44:00,
2013-05-07 00:49:00,58.8,34.5,29.84,SW,214,5.4,5.4,40,0.00,CLR,SCT,0.00,WeatherDisplay:10.37,2013-05-07 07:49:00,
2013-05-07 00:54:00,58.8,35.2,29.84,SW,217,5.8,5.8,41,0.00,CLR,SCT,0.00,WeatherDisplay:10.37,2013-05-07 07:54:00,
2013-05-07 00:59:00,58.8,35.2,29.84,SW,214,5.8,5.8,41,0.00,CLR,SCT,0.00,WeatherDisplay:10.37,2013-05-07 07:59:00,
2013-05-07 01:04:00,58.8,35.2,29.84,SW,214,5.4,5.4,41,0.00,CLR,SCT,0.00,WeatherDisplay:10.37,2013-05-07 08:04:00,
2013-05-07 01:09:00,58.6,35.0,29.84,SSW,199,5.8,5.8,41,0.00,CLR,SCT,0.00,WeatherDisplay:10.37,2013-05-07 08:09:00,
2013-05-07 01:14:00,58.5,34.8,29.84,SSW,200,5.0,6.0,41,0.00,CLR,SCT,0.00,WeatherDisplay:10.37,2013-05-07 08:14:00,
2013-05-07 01:20:00,58.5,35.4,29.84,SSW,203,5.8,5.8,42,0.00,CLR,SCT,0.00,WeatherDisplay:10.37,2013-05-07 08:20:00,
2013-05-07 01:25:00,58.1,35.1,29.84,SSW,202,3.5,4.0,42,0.00,CLR,SCT,0.00,WeatherDisplay:10.37,2013-05-07 08:25:00,
2013-05-07 01:30:00,57.7,34.2,29.84,SSW,200,4.0,4.0,41,0.00,CLR,SCT,0.00,WeatherDisplay:10.37,2013-05-07 08:30:00,
2013-05-07 01:35:00,57.4,34.5,29.84,SW,216,3.5,3.5,42,0.00,CLR,SCT,0.00,WeatherDisplay:10.37,2013-05-07 08:35:00,
2013-05-07 01:40:00,57.0,35.3,29.84,SW,222,4.6,4.6,44,0.00,CLR,SCT,0.00,WeatherDisplay:10.37,2013-05-07 08:40:00,
2013-05-07 01:45:00,57.0,35.9,29.84,SSW,209,5.8,5.8,45,0.00,CLR,SCT,0.00,WeatherDisplay:10.37,2013-05-07 08:45:00,
2013-05-07 01:50:00,57.2,36.0,29.84,SW,216,4.0,4.0,45,0.00,CLR,SCT,0.00,WeatherDisplay:10.37,2013-05-07 08:50:00,
2013-05-07 01:56:00,57.0,35.9,29.84,SW,215,3.5,3.5,45,0.00,CLR,SCT,0.00,WeatherDisplay:10.37,2013-05-07 08:56:00,
2013-05-07 02:01:00,56.8,35.7,29.84,SW,215,3.5,3.5,45,0.00,CLR,SCT,0.00,WeatherDisplay:10.37,2013-05-07 09:01:00,
2013-05-07 02:06:00,56.5,35.9,29.84,SW,215,3.5,4.0,46,0.00,CLR,SCT,0.00,WeatherDisplay:10.37,2013-05-07 09:06:00,
2013-05-07 02:11:00,56.5,35.9,29.84,SSW,208,3.5,3.6,46,0.00,CLR,SCT,0.00,WeatherDisplay:10.37,2013-05-07 09:11:00,
2013-05-07 02:16:00,56.1,35.6,29.84,SSW,208,3.5,3.5,46,0.00,CLR,SCT,0.00,WeatherDisplay:10.37,2013-05-07 09:16:00,
2013-05-07 02:21:00,55.9,36.0,29.84,SSW,208,3.5,3.5,47,0.00,CLR,SCT,0.00,WeatherDisplay:10.37,2013-05-07 09:21:00,
2013-05-07 02:27:00,55.8,35.8,29.84,SSW,212,5.8,5.8,47,0.00,CLR,SCT,0.00,WeatherDisplay:10.37,2013-05-07 09:27:00,
2013-05-07 02:32:00,55.9,36.0,29.84,SSW,213,3.5,3.5,47,0.00,CLR,SCT,0.00,WeatherDisplay:10.37,2013-05-07 09:32:00,
2013-05-07 02:37:00,55.8,35.8,29.84,South,173,3.5,3.5,47,0.00,CLR,SCT,0.00,WeatherDisplay:10.37,2013-05-07 09:37:00,
2013-05-07 02:42:00,55.6,35.7,29.84,SSE,158,4.6,4.6,47,0.00,CLR,SCT,0.00,WeatherDisplay:10.37,2013-05-07 09:42:00,
2013-05-07 02:47:00,55.6,35.7,29.84,SSE,158,2.3,0.0,47,0.00,CLR,SCT,0.00,WeatherDisplay:10.37,2013-05-07 09:47:00,
2013-05-07 02:52:00,55.2,35.9,29.84,SSE,158,0.0,0.0,48,0.00,CLR,SCT,0.00,WeatherDisplay:10.37,2013-05-07 09:52:00,
2013-05-07 02:58:00,55.0,35.7,29.84,SSE,158,3.5,3.5,48,0.00,CLR,SCT,0.00,WeatherDisplay:10.37,2013-05-07 09:58:00,
2013-05-07 03:03:00,54.9,36.0,29.84,SE,128,4.6,4.6,49,0.00,CLR,SCT,0.00,WeatherDisplay:10.37,2013-05-07 10:03:00,
2013-05-07 03:08:00,54.9,36.0,29.84,SE,138,4.9,4.9,49,0.00,CLR,SCT,0.00,WeatherDisplay:10.37,2013-05-07 10:08:00,
2013-05-07 03:13:00,54.7,35.9,29.84,SE,146,3.5,3.5,49,0.00,CLR,SCT,0.00,WeatherDisplay:10.37,2013-05-07 10:13:00,
2013-05-07 03:18:00,54.7,35.9,29.84,SSE,150,3.5,3.5,49,0.00,CLR,SCT,0.00,WeatherDisplay:10.37,2013-05-07 10:18:00,
2013-05-07 03:23:00,54.5,35.2,29.84,SSE,150,0.0,0.0,48,0.00,CLR,SCT,0.00,WeatherDisplay:10.37,2013-05-07 10:23:00,
2013-05-07 03:28:00,54.1,35.4,29.84,SSE,150,0.0,0.0,49,0.00,CLR,SCT,0.00,WeatherDisplay:10.37,2013-05-07 10:28:00,
2013-05-07 03:34:00,53.8,35.1,29.84,SSE,150,2.3,0.0,49,0.00,CLR,SCT,0.00,WeatherDisplay:10.37,2013-05-07 10:34:00,
2013-05-07 03:39:00,53.4,35.2,29.84,SSE,148,3.5,3.5,50,0.00,CLR,SCT,0.00,WeatherDisplay:10.37,2013-05-07 10:39:00,
2013-05-07 03:44:00,53.2,35.6,29.84,SSE,151,3.5,3.6,51,0.00,CLR,SCT,0.00,WeatherDisplay:10.37,2013-05-07 10:44:00,
2013-05-07 03:49:00,53.4,36.7,29.84,SSE,154,3.6,3.6,53,0.00,CLR,SCT,0.00,WeatherDisplay:10.37,2013-05-07 10:49:00,
2013-05-07 03:55:00,53.6,36.4,29.84,WSW,249,3.5,0.0,52,0.00,CLR,SCT,0.00,WeatherDisplay:10.37,2013-05-07 10:55:00,
2013-05-07 04:00:00,53.4,36.2,29.84,WSW,249,3.5,3.5,52,0.00,CLR,SCT,0.00,WeatherDisplay:10.37,2013-05-07 11:00:00,
2013-05-07 04:05:00,53.4,36.2,29.84,WSW,249,3.6,0.0,52,0.00,CLR,SCT,0.00,WeatherDisplay:10.37,2013-05-07 11:05:00,
2013-05-07 04:10:00,53.2,36.5,29.87,WSW,249,3.5,0.0,53,0.00,CLR,SCT,0.00,WeatherDisplay:10.37,2013-05-07 11:10:00,
2013-05-07 04:16:00,53.1,35.9,29.87,WSW,249,0.0,0.0,52,0.00,CLR,SCT,0.00,WeatherDisplay:10.37,2013-05-07 11:16:00,
2013-05-07 04:21:00,52.7,35.1,29.87,WSW,249,2.3,0.0,51,0.00,CLR,SCT,0.00,WeatherDisplay:10.37,2013-05-07 11:21:00,
2013-05-07 04:26:00,52.2,35.5,29.84,WSW,249,0.0,0.0,53,0.00,CLR,SCT,0.00,WeatherDisplay:10.37,2013-05-07 11:26:00,
2013-05-07 04:31:00,52.0,35.8,29.84,WSW,249,0.0,0.0,54,0.00,CLR,SCT,0.00,WeatherDisplay:10.37,2013-05-07 11:31:00,
2013-05-07 04:37:00,51.8,35.7,29.84,WSW,249,0.0,0.0,54,0.00,CLR,SCT,0.00,WeatherDisplay:10.37,2013-05-07 11:37:00,
2013-05-07 04:42:00,51.6,35.5,29.87,WSW,249,0.0,0.0,54,0.00,CLR,SCT,0.00,WeatherDisplay:10.37,2013-05-07 11:42:00,
2013-05-07 04:47:00,51.6,36.4,29.87,WSW,249,0.0,0.0,56,0.00,CLR,SCT,0.00,WeatherDisplay:10.37,2013-05-07 11:47:00,
2013-05-07 04:52:00,51.4,36.3,29.87,WSW,249,3.5,3.5,56,0.00,CLR,SCT,0.00,WeatherDisplay:10.37,2013-05-07 11:52:00,
2013-05-07 04:57:00,51.3,36.5,29.84,SE,126,3.5,4.0,57,0.00,CLR,SCT,0.00,WeatherDisplay:10.37,2013-05-07 11:57:00,
2013-05-07 05:02:00,51.3,37.0,29.84,SE,130,3.5,3.6,58,0.00,CLR,SCT,0.00,WeatherDisplay:10.37,2013-05-07 12:02:00,
2013-05-07 05:07:00,50.9,35.3,29.84,SE,130,3.5,3.5,55,0.00,CLR,SCT,0.00,WeatherDisplay:10.37,2013-05-07 12:07:00,
2013-05-07 05:13:00,50.5,34.5,29.84,SE,130,0.0,0.0,54,0.00,CLR,SCT,0.00,WeatherDisplay:10.37,2013-05-07 12:13:00,
2013-05-07 05:18:00,50.0,34.0,29.84,SE,130,26.5,0.0,54,0.00,CLR,SCT,0.00,WeatherDisplay:10.37,2013-05-07 12:18:00,
2013-05-07 05:23:00,49.6,34.6,29.84,SE,130,26.5,0.0,56,0.00,CLR,SCT,0.00,WeatherDisplay:10.37,2013-05-07 12:23:00,
2013-05-07 05:28:00,49.5,35.3,29.87,SE,130,3.5,3.5,58,0.00,CLR,SCT,0.00,WeatherDisplay:10.37,2013-05-07 12:28:00,
2013-05-07 05:33:00,49.5,35.3,29.87,SE,130,3.5,3.5,58,0.00,CLR,SCT,0.00,WeatherDisplay:10.37,2013-05-07 12:33:00,
2013-05-07 05:38:00,49.5,35.7,29.87,SE,131,3.5,3.5,59,0.00,CLR,SCT,0.00,WeatherDisplay:10.37,2013-05-07 12:38:00,
2013-05-07 05:43:00,49.3,36.0,29.87,SE,146,3.5,3.6,60,0.00,CLR,SCT,0.00,WeatherDisplay:10.37,2013-05-07 12:43:00,
2013-05-07 05:48:00,49.3,36.0,29.87,SE,146,0.0,0.0,60,0.00,CLR,SCT,0.00,WeatherDisplay:10.37,2013-05-07 12:48:00,
2013-05-07 05:54:00,49.3,36.0,29.87,SE,146,0.0,0.0,60,0.00,CLR,SCT,0.00,WeatherDisplay:10.37,2013-05-07 12:54:00,
2013-05-07 05:59:00,48.9,35.2,29.87,SE,146,0.0,0.0,59,0.00,CLR,SCT,0.00,WeatherDisplay:10.37,2013-05-07 12:59:00,
2013-05-07 06:04:00,48.6,35.7,29.87,SE,146,0.0,0.0,61,0.00,CLR,SCT,0.00,WeatherDisplay:10.37,2013-05-07 13:04:00,
2013-05-07 06:09:00,48.2,35.8,29.87,SE,144,3.5,3.5,62,0.00,CLR,SCT,0.00,WeatherDisplay:10.37,2013-05-07 13:09:00,
2013-05-07 06:14:00,48.2,36.2,29.87,SE,144,3.5,3.5,63,0.00,CLR,SCT,0.00,WeatherDisplay:10.37,2013-05-07 13:14:00,
2013-05-07 06:19:00,48.4,36.8,29.87,SE,144,3.5,3.5,64,0.00,CLR,SCT,0.00,WeatherDisplay:10.37,2013-05-07 13:19:00,
2013-05-07 06:24:00,48.2,36.2,29.87,SE,144,2.3,0.0,63,0.00,CLR,SCT,0.00,WeatherDisplay:10.37,2013-05-07 13:24:00,
2013-05-07 06:29:00,48.0,36.0,29.87,SE,144,0.0,4.0,63,0.00,CLR,SCT,0.00,WeatherDisplay:10.37,2013-05-07 13:29:00,
2013-05-07 06:35:00,48.0,36.4,29.87,SE,144,0.0,0.0,64,0.00,CLR,SCT,0.00,WeatherDisplay:10.37,2013-05-07 13:35:00,
2013-05-07 06:40:00,47.8,35.8,29.87,SSE,147,3.6,3.6,63,0.00,CLR,SCT,0.00,WeatherDisplay:10.37,2013-05-07 13:40:00,
2013-05-07 06:45:00,47.7,36.1,29.87,SSE,149,3.5,3.5,64,0.00,CLR,SCT,0.00,WeatherDisplay:10.37,2013-05-07 13:45:00,
2013-05-07 06:50:00,48.0,36.8,29.87,SSE,149,3.5,3.6,65,0.00,CLR,SCT,0.00,WeatherDisplay:10.37,2013-05-07 13:50:00,
2013-05-07 06:55:00,48.0,36.8,29.87,SSE,151,3.5,3.5,65,0.00,CLR,SCT,0.00,WeatherDisplay:10.37,2013-05-07 13:55:00,
2013-05-07 07:01:00,48.2,36.6,29.87,SSE,151,2.3,2.3,64,0.00,CLR,SCT,0.00,WeatherDisplay:10.37,2013-05-07 14:01:00,
2013-05-07 07:06:00,48.2,36.6,29.87,SSE,151,3.5,3.5,64,0.00,CLR,SCT,0.00,WeatherDisplay:10.37,2013-05-07 14:06:00,
2013-05-07 07:11:00,48.4,36.8,29.87,SSE,151,2.3,0.0,64,0.00,CLR,SCT,0.00,WeatherDisplay:10.37,2013-05-07 14:11:00,
2013-05-07 07:16:00,48.9,36.9,29.87,SSE,151,0.0,0.0,63,0.00,CLR,SCT,0.00,WeatherDisplay:10.37,2013-05-07 14:16:00,
2013-05-07 07:21:00,49.3,36.8,29.87,SSE,151,3.5,0.0,62,0.00,CLR,SCT,0.00,WeatherDisplay:10.37,2013-05-07 14:21:00,
2013-05-07 07:27:00,49.6,36.7,29.87,SSE,151,0.0,0.0,61,0.00,CLR,SCT,0.00,WeatherDisplay:10.37,2013-05-07 14:27:00,
2013-05-07 07:32:00,50.4,37.0,29.87,SSE,151,0.0,0.0,60,0.00,CLR,SCT,0.00,WeatherDisplay:10.37,2013-05-07 14:32:00,
2013-05-07 07:37:00,51.1,36.4,29.87,SSE,151,2.3,0.0,57,0.00,CLR,SCT,0.00,WeatherDisplay:10.37,2013-05-07 14:37:00,
2013-05-07 07:42:00,51.8,36.6,29.87,SSE,151,0.0,0.0,56,0.00,CLR,SCT,0.00,WeatherDisplay:10.37,2013-05-07 14:42:00,
2013-05-07 07:47:00,52.5,36.3,29.87,SSE,149,3.5,0.0,54,0.00,CLR,SCT,0.00,WeatherDisplay:10.37,2013-05-07 14:47:00,
2013-05-07 07:53:00,53.4,36.2,29.87,SSE,149,2.3,0.0,52,0.00,CLR,SCT,0.00,WeatherDisplay:10.37,2013-05-07 14:53:00,
2013-05-07 07:58:00,54.7,36.4,29.87,SSE,149,2.3,0.0,50,0.00,CLR,SCT,0.00,WeatherDisplay:10.37,2013-05-07 14:58:00,
2013-05-07 08:03:00,55.4,36.0,29.87,SSE,149,0.0,0.0,48,0.00,CLR,SCT,0.00,WeatherDisplay:10.37,2013-05-07 15:03:00,
2013-05-07 08:08:00,55.9,36.0,29.87,SSE,149,0.0,0.0,47,0.00,CLR,SCT,0.00,WeatherDisplay:10.37,2013-05-07 15:08:00,
2013-05-07 08:13:00,56.3,36.3,29.87,SSE,149,0.0,0.0,47,0.00,CLR,SCT,0.00,WeatherDisplay:10.37,2013-05-07 15:13:00,
2013-05-07 08:19:00,56.7,36.1,29.87,SSE,149,0.0,0.0,46,0.00,CLR,SCT,0.00,WeatherDisplay:10.37,2013-05-07 15:19:00,
2013-05-07 08:24:00,57.2,36.6,29.87,SSE,149,0.0,0.0,46,0.00,CLR,SCT,0.00,WeatherDisplay:10.37,2013-05-07 15:24:00,
2013-05-07 08:29:00,58.1,36.9,29.87,SSE,149,0.0,0.0,45,0.00,CLR,SCT,0.00,WeatherDisplay:10.37,2013-05-07 15:29:00,
2013-05-07 08:34:00,58.8,36.9,29.87,SSE,149,3.5,3.5,44,0.00,CLR,SCT,0.00,WeatherDisplay:10.37,2013-05-07 15:34:00,
2013-05-07 08:39:00,59.5,35.8,29.87,ESE,122,3.5,3.5,41,0.00,CLR,SCT,0.00,WeatherDisplay:10.37,2013-05-07 15:39:00,
2013-05-07 08:45:00,60.4,36.0,29.87,ESE,102,3.5,3.5,40,0.00,CLR,SCT,0.00,WeatherDisplay:10.37,2013-05-07 15:45:00,
2013-05-07 08:50:00,61.0,35.8,29.87,ESE,107,3.5,0.0,39,0.00,CLR,SCT,0.00,WeatherDisplay:10.37,2013-05-07 15:50:00,
2013-05-07 08:55:00,61.5,36.3,29.87,ESE,108,0.0,0.0,39,0.00,CLR,SCT,0.00,WeatherDisplay:10.37,2013-05-07 15:55:00,
2013-05-07 09:00:00,62.2,37.0,29.87,East,96,0.0,0.0,39,0.00,CLR,SCT,0.00,WeatherDisplay:10.37,2013-05-07 16:00:00,
2013-05-07 09:05:00,63.1,37.1,29.87,East,96,0.0,0.0,38,0.00,CLR,SCT,0.00,WeatherDisplay:10.37,2013-05-07 16:05:00,
2013-05-07 09:10:00,63.9,37.1,29.87,WSW,240,0.0,0.0,37,0.00,CLR,SCT,0.00,WeatherDisplay:10.37,2013-05-07 16:10:00,
2013-05-07 09:15:00,64.4,36.8,29.87,SSE,167,3.5,0.0,36,0.00,CLR,SCT,0.00,WeatherDisplay:10.37,2013-05-07 16:15:00,
2013-05-07 09:20:00,65.1,37.5,29.87,South,173,0.0,0.0,36,0.00,CLR,SCT,0.00,WeatherDisplay:10.37,2013-05-07 16:20:00,
2013-05-07 09:25:00,65.8,37.4,29.87,SSE,166,3.5,0.0,35,0.00,CLR,SCT,0.00,WeatherDisplay:10.37,2013-05-07 16:25:00,
2013-05-07 09:30:00,66.2,37.7,29.87,SSE,165,0.0,0.0,35,0.00,CLR,SCT,0.00,WeatherDisplay:10.37,2013-05-07 16:30:00,
2013-05-07 09:35:00,66.7,38.2,29.87,East,100,3.5,0.0,35,0.00,CLR,SCT,0.00,WeatherDisplay:10.37,2013-05-07 16:35:00,
2013-05-07 09:41:00,68.0,38.6,29.87,East,100,3.5,3.5,34,0.00,CLR,SCT,0.00,WeatherDisplay:10.37,2013-05-07 16:41:00,
2013-05-07 09:46:00,68.9,39.4,29.87,ENE,78,5.8,5.8,34,0.00,CLR,SCT,0.00,WeatherDisplay:10.37,2013-05-07 16:46:00,
2013-05-07 09:51:00,69.8,39.4,29.87,NE,39,3.5,3.6,33,0.00,CLR,SCT,0.00,WeatherDisplay:10.37,2013-05-07 16:51:00,
2013-05-07 09:56:00,70.5,40.0,29.87,ENE,65,3.6,4.0,33,0.00,CLR,SCT,0.00,WeatherDisplay:10.37,2013-05-07 16:56:00,
2013-05-07 10:01:00,70.9,40.3,29.87,North,0,2.3,0.0,33,0.00,CLR,SCT,0.00,WeatherDisplay:10.37,2013-05-07 17:01:00,
2013-05-07 10:07:00,71.2,40.6,29.87,ESE,105,5.8,5.8,33,0.00,CLR,SCT,0.00,WeatherDisplay:10.37,2013-05-07 17:07:00,
2013-05-07 10:12:00,72.0,40.5,29.87,East,82,5.8,5.8,32,0.00,CLR,SCT,0.00,WeatherDisplay:10.37,2013-05-07 17:12:00,
2013-05-07 10:17:00,72.3,40.8,29.87,ENE,65,3.5,3.6,32,0.00,CLR,SCT,0.00,WeatherDisplay:10.37,2013-05-07 17:17:00,
2013-05-07 10:22:00,72.7,41.1,29.87,WSW,250,3.5,3.5,32,0.00,CLR,SCT,0.00,WeatherDisplay:10.37,2013-05-07 17:22:00,
2013-05-07 10:27:00,72.9,41.3,29.87,SE,126,0.0,0.0,32,0.00,CLR,SCT,0.00,WeatherDisplay:10.37,2013-05-07 17:27:00,
2013-05-07 10:33:00,74.1,42.4,29.87,East,93,2.3,0.0,32,0.00,CLR,SCT,0.00,WeatherDisplay:10.37,2013-05-07 17:33:00,
2013-05-07 10:38:00,74.7,42.8,29.87,NE,45,3.5,3.5,32,0.00,CLR,SCT,0.00,WeatherDisplay:10.37,2013-05-07 17:38:00,
2013-05-07 10:43:00,75.6,42.8,29.87,NE,43,3.1,0.0,31,0.00,CLR,SCT,0.00,WeatherDisplay:10.37,2013-05-07 17:43:00,
2013-05-07 10:48:00,76.6,43.7,29.87,North,0,4.6,5.4,31,0.00,CLR,SCT,0.00,WeatherDisplay:10.37,2013-05-07 17:48:00,
2013-05-07 10:53:00,76.8,43.9,29.87,North,0,8.1,8.1,31,0.00,CLR,SCT,0.00,WeatherDisplay:10.37,2013-05-07 17:53:00,
2013-05-07 10:59:00,76.8,43.9,29.87,North,2,3.5,0.0,31,0.00,CLR,SCT,0.00,WeatherDisplay:10.37,2013-05-07 17:59:00,
2013-05-07 11:04:00,77.2,44.2,29.87,East,96,3.5,0.0,31,0.00,CLR,SCT,0.00,WeatherDisplay:10.37,2013-05-07 18:04:00,
2013-05-07 11:09:00,78.4,45.3,29.87,NE,54,5.8,5.8,31,0.00,CLR,SCT,0.00,WeatherDisplay:10.37,2013-05-07 18:09:00,
2013-05-07 11:14:00,79.0,44.9,29.87,NW,313,3.5,3.5,30,0.00,CLR,SCT,0.00,WeatherDisplay:10.37,2013-05-07 18:14:00,
2013-05-07 11:19:00,79.0,44.9,29.87,North,0,5.8,5.8,30,0.00,CLR,SCT,0.00,WeatherDisplay:10.37,2013-05-07 18:19:00,
2013-05-07 11:25:00,79.7,45.5,29.87,WNW,291,9.2,9.2,30,0.00,CLR,SCT,0.00,WeatherDisplay:10.37,2013-05-07 18:25:00,
2013-05-07 11:30:00,80.4,46.1,29.87,WNW,295,5.0,9.0,30,0.00,CLR,SCT,0.00,WeatherDisplay:10.37,2013-05-07 18:30:00,
2013-05-07 11:35:00,81.7,47.2,29.87,NW,307,3.5,3.5,30,0.00,CLR,SCT,0.00,WeatherDisplay:10.37,2013-05-07 18:35:00,
2013-05-07 11:40:00,81.9,47.4,29.87,NNE,31,8.1,8.1,30,0.00,CLR,SCT,0.00,WeatherDisplay:10.37,2013-05-07 18:40:00,
2013-05-07 11:45:00,81.7,47.2,29.87,WNW,297,4.6,4.6,30,0.00,CLR,SCT,0.00,WeatherDisplay:10.37,2013-05-07 18:45:00,
2013-05-07 11:51:00,81.7,47.2,29.87,NNE,33,8.1,8.1,30,0.00,CLR,SCT,0.00,WeatherDisplay:10.37,2013-05-07 18:51:00,
2013-05-07 11:56:00,81.9,47.4,29.87,North,1,8.3,8.3,30,0.00,CLR,SCT,0.00,WeatherDisplay:10.37,2013-05-07 18:56:00,
2013-05-07 12:01:00,82.0,47.5,29.87,North,353,5.8,5.8,30,0.00,CLR,SCT,0.00,WeatherDisplay:10.37,2013-05-07 19:01:00,
2013-05-07 12:06:00,82.6,47.1,29.87,North,7,5.8,5.8,29,0.00,CLR,SCT,0.00,WeatherDisplay:10.37,2013-05-07 19:06:00,
2013-05-07 12:11:00,83.3,47.7,29.87,North,349,10.4,10.4,29,0.00,CLR,SCT,0.00,WeatherDisplay:10.37,2013-05-07 19:11:00,
2013-05-07 12:16:00,82.8,47.3,29.87,NNW,338,10.4,10.4,29,0.00,CLR,SCT,0.00,WeatherDisplay:10.37,2013-05-07 19:16:00,
2013-05-07 12:21:00,82.4,46.9,29.87,North,353,7.6,7.6,29,0.00,CLR,SCT,0.00,WeatherDisplay:10.37,2013-05-07 19:21:00,
2013-05-07 12:27:00,82.8,47.3,29.87,NE,34,9.2,9.2,29,0.00,CLR,SCT,0.00,WeatherDisplay:10.37,2013-05-07 19:27:00,
2013-05-07 12:32:00,82.8,47.3,29.87,North,9,11.5,11.5,29,0.00,CLR,SCT,0.00,WeatherDisplay:10.37,2013-05-07 19:32:00,
2013-05-07 12:37:00,82.8,47.3,29.87,North,9,8.1,8.1,29,0.00,CLR,SCT,0.00,WeatherDisplay:10.37,2013-05-07 19:37:00,
2013-05-07 12:43:00,83.5,47.9,29.87,NNW,331,8.1,8.1,29,0.00,CLR,SCT,0.00,WeatherDisplay:10.37,2013-05-07 19:43:00,
2013-05-07 12:48:00,83.1,47.6,29.87,NNW,342,9.2,9.2,29,0.00,CLR,SCT,0.00,WeatherDisplay:10.37,2013-05-07 19:48:00,
2013-05-07 12:53:00,83.3,47.7,29.87,NNW,340,8.1,8.1,29,0.00,CLR,SCT,0.00,WeatherDisplay:10.37,2013-05-07 19:53:00,
2013-05-07 12:58:00,83.8,48.2,29.87,North,353,5.8,5.8,29,0.00,CLR,SCT,0.00,WeatherDisplay:10.37,2013-05-07 19:58:00,
2013-05-07 13:03:00,84.2,48.5,29.87,NW,320,8.1,8.1,29,0.00,CLR,SCT,0.00,WeatherDisplay:10.37,2013-05-07 20:03:00,
2013-05-07 13:09:00,84.6,48.8,29.87,WNW,287,8.1,8.1,29,0.00,CLR,SCT,0.00,WeatherDisplay:10.37,2013-05-07 20:09:00,
2013-05-07 13:14:00,84.7,49.0,29.87,NE,45,8.1,8.1,29,0.00,CLR,SCT,0.00,WeatherDisplay:10.37,2013-05-07 20:14:00,
2013-05-07 13:19:00,84.9,49.1,29.87,NW,307,10.4,10.4,29,0.00,CLR,SCT,0.00,WeatherDisplay:10.37,2013-05-07 20:19:00,
2013-05-07 13:24:00,84.7,49.0,29.84,WNW,303,11.5,11.5,29,0.00,CLR,SCT,0.00,WeatherDisplay:10.37,2013-05-07 20:24:00,
2013-05-07 13:30:00,84.7,49.0,29.84,NNE,28,9.2,9.2,29,0.00,CLR,SCT,0.00,WeatherDisplay:10.37,2013-05-07 20:30:00,
2013-05-07 13:35:00,85.1,49.3,29.84,NNW,340,5.8,5.8,29,0.00,CLR,SCT,0.00,WeatherDisplay:10.37,2013-05-07 20:35:00,
2013-05-07 13:40:00,84.7,49.0,29.84,NNW,346,12.7,12.7,29,0.00,CLR,SCT,0.00,WeatherDisplay:10.37,2013-05-07 20:40:00,
2013-05-07 13:45:00,84.6,48.8,29.84,NE,37,9.2,9.2,29,0.00,CLR,SCT,0.00,WeatherDisplay:10.37,2013-05-07 20:45:00,
2013-05-07 13:50:00,84.7,49.0,29.84,NNW,335,5.8,7.2,29,0.00,CLR,SCT,0.00,WeatherDisplay:10.37,2013-05-07 20:50:00,
2013-05-07 13:55:00,84.6,48.8,29.84,North,0,10.4,10.4,29,0.00,CLR,SCT,0.00,WeatherDisplay:10.37,2013-05-07 20:55:00,
2013-05-07 14:00:00,84.4,48.6,29.84,WNW,286,8.1,8.1,29,0.00,CLR,SCT,0.00,WeatherDisplay:10.37,2013-05-07 21:00:00,
2013-05-07 14:06:00,84.7,49.0,29.84,North,357,8.1,8.1,29,0.00,CLR,SCT,0.00,WeatherDisplay:10.37,2013-05-07 21:06:00,
2013-05-07 14:11:00,85.3,49.4,29.84,NW,315,5.8,5.8,29,0.00,CLR,SCT,0.00,WeatherDisplay:10.37,2013-05-07 21:11:00,
2013-05-07 14:16:00,86.2,50.2,29.84,NW,325,8.1,8.1,29,0.00,CLR,SCT,0.00,WeatherDisplay:10.37,2013-05-07 21:16:00,
2013-05-07 14:21:00,86.2,50.2,29.84,NNW,344,8.1,8.1,29,0.00,CLR,SCT,0.00,WeatherDisplay:10.37,2013-05-07 21:21:00,
2013-05-07 14:26:00,86.4,50.3,29.84,North,0,10.4,10.4,29,0.00,CLR,SCT,0.00,WeatherDisplay:10.37,2013-05-07 21:26:00,
2013-05-07 14:32:00,86.2,50.2,29.84,NE,45,8.1,8.1,29,0.00,CLR,SCT,0.00,WeatherDisplay:10.37,2013-05-07 21:32:00,
2013-05-07 14:37:00,86.0,50.0,29.84,NNE,12,12.7,12.7,29,0.00,CLR,SCT,0.00,WeatherDisplay:10.37,2013-05-07 21:37:00,
2013-05-07 14:42:00,85.8,49.9,29.84,North,0,5.8,5.8,29,0.00,CLR,SCT,0.00,WeatherDisplay:10.37,2013-05-07 21:42:00,
2013-05-07 14:47:00,85.8,49.9,29.84,NNW,340,11.5,11.5,29,0.00,CLR,SCT,0.00,WeatherDisplay:10.37,2013-05-07 21:47:00,
2013-05-07 14:52:00,85.3,49.4,29.84,NW,318,10.4,10.4,29,0.00,CLR,SCT,0.00,WeatherDisplay:10.37,2013-05-07 21:52:00,
2013-05-07 14:57:00,85.5,49.6,29.84,NW,326,9.2,9.2,29,0.00,CLR,SCT,0.00,WeatherDisplay:10.37,2013-05-07 21:57:00,
2013-05-07 15:02:00,85.3,49.4,29.84,WNW,303,10.4,10.4,29,0.00,CLR,SCT,0.00,WeatherDisplay:10.37,2013-05-07 22:02:00,
2013-05-07 15:07:00,85.3,49.4,29.84,NNW,341,12.7,12.7,29,0.00,CLR,SCT,0.00,WeatherDisplay:10.37,2013-05-07 22:07:00,
2013-05-07 15:12:00,85.6,49.7,29.84,NW,312,12.7,12.7,29,0.00,CLR,SCT,0.00,WeatherDisplay:10.37,2013-05-07 22:12:00,
2013-05-07 15:18:00,85.6,49.7,29.84,NW,307,12.7,12.7,29,0.00,CLR,SCT,0.00,WeatherDisplay:10.37,2013-05-07 22:18:00,
2013-05-07 15:23:00,86.0,50.0,29.84,North,7,10.4,10.4,29,0.00,CLR,SCT,0.00,WeatherDisplay:10.37,2013-05-07 22:23:00,
2013-05-07 15:28:00,85.5,49.6,29.84,NW,320,15.0,15.0,29,0.00,CLR,SCT,0.00,WeatherDisplay:10.37,2013-05-07 22:28:00,
2013-05-07 15:33:00,85.5,49.6,29.84,North,357,12.7,12.7,29,0.00,CLR,SCT,0.00,WeatherDisplay:10.37,2013-05-07 22:33:00,
2013-05-07 15:38:00,86.0,50.0,29.84,NNE,33,12.7,12.7,29,0.00,CLR,SCT,0.00,WeatherDisplay:10.37,2013-05-07 22:38:00,
2013-05-07 15:44:00,85.8,49.9,29.84,North,357,5.8,5.8,29,0.00,CLR,SCT,0.00,WeatherDisplay:10.37,2013-05-07 22:44:00,
2013-05-07 15:49:00,85.8,49.9,29.84,NNW,344,8.1,8.1,29,0.00,CLR,SCT,0.00,WeatherDisplay:10.37,2013-05-07 22:49:00,
2013-05-07 15:54:00,86.0,50.0,29.84,North,357,8.1,8.1,29,0.00,CLR,SCT,0.00,WeatherDisplay:10.37,2013-05-07 22:54:00,
2013-05-07 15:59:00,85.8,49.9,29.84,NNE,23,11.5,11.5,29,0.00,CLR,SCT,0.00,WeatherDisplay:10.37,2013-05-07 22:59:00,
2013-05-07 16:04:00,86.4,50.3,29.84,North,357,8.1,8.1,29,0.00,CLR,SCT,0.00,WeatherDisplay:10.37,2013-05-07 23:04:00,
2013-05-07 16:09:00,86.4,50.3,29.81,North,0,11.5,11.5,29,0.00,CLR,SCT,0.00,WeatherDisplay:10.37,2013-05-07 23:09:00,
2013-05-07 16:14:00,86.2,50.2,29.81,NE,40,10.4,10.4,29,0.00,CLR,SCT,0.00,WeatherDisplay:10.37,2013-05-07 23:14:00,
2013-05-07 16:20:00,85.1,49.3,29.81,North,0,15.0,15.0,29,0.00,CLR,SCT,0.00,WeatherDisplay:10.37,2013-05-07 23:20:00,
2013-05-07 16:25:00,85.5,49.6,29.81,NNE,29,11.5,11.5,29,0.00,CLR,SCT,0.00,WeatherDisplay:10.37,2013-05-07 23:25:00,
2013-05-07 16:30:00,85.1,49.3,29.81,North,10,12.7,12.7,29,0.00,CLR,SCT,0.00,WeatherDisplay:10.37,2013-05-07 23:30:00,
2013-05-07 16:35:00,85.3,49.4,29.81,NE,37,10.5,10.5,29,0.00,CLR,SCT,0.00,WeatherDisplay:10.37,2013-05-07 23:35:00,
2013-05-07 16:40:00,85.6,49.7,29.81,NNW,334,13.6,13.6,29,0.00,CLR,SCT,0.00,WeatherDisplay:10.37,2013-05-07 23:40:00,
2013-05-07 16:45:00,84.9,49.1,29.81,North,10,9.2,9.2,29,0.00,CLR,SCT,0.00,WeatherDisplay:10.37,2013-05-07 23:45:00,
2013-05-07 16:51:00,85.5,49.6,29.81,NNE,27,6.9,6.9,29,0.00,CLR,SCT,0.00,WeatherDisplay:10.37,2013-05-07 23:51:00,
2013-05-07 16:56:00,85.1,49.3,29.81,North,8,11.5,11.5,29,0.00,CLR,SCT,0.00,WeatherDisplay:10.37,2013-05-07 23:56:00,
2013-05-07 17:01:00,85.1,49.3,29.81,North,0,10.9,10.9,29,0.00,CLR,SCT,0.00,WeatherDisplay:10.37,2013-05-08 00:01:00,
2013-05-07 17:06:00,84.7,49.0,29.81,WNW,302,10.4,10.4,29,0.00,CLR,SCT,0.00,WeatherDisplay:10.37,2013-05-08 00:06:00,
2013-05-07 17:12:00,85.1,49.3,29.81,NW,321,8.1,10.9,29,0.00,CLR,SCT,0.00,WeatherDisplay:10.37,2013-05-08 00:12:00,
2013-05-07 17:17:00,84.6,48.8,29.81,North,350,5.8,5.8,29,0.00,CLR,SCT,0.00,WeatherDisplay:10.37,2013-05-08 00:17:00,
2013-05-07 17:22:00,84.0,48.3,29.81,North,0,10.4,10.4,29,0.00,CLR,SCT,0.00,WeatherDisplay:10.37,2013-05-08 00:22:00,
2013-05-07 17:27:00,84.2,48.5,29.81,NE,48,10.4,10.4,29,0.00,CLR,SCT,0.00,WeatherDisplay:10.37,2013-05-08 00:27:00,
2013-05-07 17:32:00,84.2,48.5,29.81,North,0,8.1,8.1,29,0.00,CLR,SCT,0.00,WeatherDisplay:10.37,2013-05-08 00:32:00,
2013-05-07 17:37:00,84.0,48.3,29.81,WNW,295,12.7,12.7,29,0.00,CLR,SCT,0.00,WeatherDisplay:10.37,2013-05-08 00:37:00,
2013-05-07 17:42:00,84.0,48.3,29.81,NNW,338,10.4,10.4,29,0.00,CLR,SCT,0.00,WeatherDisplay:10.37,2013-05-08 00:42:00,
2013-05-07 17:48:00,83.8,48.2,29.81,WNW,288,12.7,12.7,29,0.00,CLR,SCT,0.00,WeatherDisplay:10.37,2013-05-08 00:48:00,
2013-05-07 17:53:00,83.7,48.0,29.81,NW,326,12.7,14.1,29,0.00,CLR,SCT,0.00,WeatherDisplay:10.37,2013-05-08 00:53:00,
2013-05-07 17:58:00,83.3,47.7,29.81,NW,306,18.4,18.4,29,0.00,CLR,SCT,0.00,WeatherDisplay:10.37,2013-05-08 00:58:00,
2013-05-07 18:03:00,82.6,47.1,29.81,NNW,345,12.7,13.6,29,0.00,CLR,SCT,0.00,WeatherDisplay:10.37,2013-05-08 01:03:00,
2013-05-07 18:08:00,81.5,47.1,29.81,West,279,15.0,15.0,30,0.00,CLR,SCT,0.00,WeatherDisplay:10.37,2013-05-08 01:08:00,
2013-05-07 18:14:00,80.6,46.3,29.81,WNW,301,13.8,13.8,30,0.00,CLR,SCT,0.00,WeatherDisplay:10.37,2013-05-08 01:14:00,
2013-05-07 18:19:00,80.2,46.0,29.81,NW,309,10.4,10.4,30,0.00,CLR,SCT,0.00,WeatherDisplay:10.37,2013-05-08 01:19:00,
2013-05-07 18:24:00,80.1,45.8,29.81,NW,313,12.7,12.7,30,0.00,CLR,SCT,0.00,WeatherDisplay:10.37,2013-05-08 01:24:00,
2013-05-07 18:29:00,79.9,45.7,29.81,NNW,328,12.7,12.7,30,0.00,CLR,SCT,0.00,WeatherDisplay:10.37,2013-05-08 01:29:00,
2013-05-07 18:34:00,80.2,46.0,29.81,WNW,294,15.0,15.0,30,0.00,CLR,SCT,0.00,WeatherDisplay:10.37,2013-05-08 01:34:00,
2013-05-07 18:40:00,79.5,45.4,29.84,WNW,292,15.0,15.0,30,0.00,CLR,SCT,0.00,WeatherDisplay:10.37,2013-05-08 01:40:00,
2013-05-07 18:45:00,79.0,44.9,29.84,WNW,299,12.7,12.7,30,0.00,CLR,SCT,0.00,WeatherDisplay:10.37,2013-05-08 01:45:00,
2013-05-07 18:50:00,78.3,45.1,29.84,WNW,283,16.1,16.1,31,0.00,CLR,SCT,0.00,WeatherDisplay:10.37,2013-05-08 01:50:00,
2013-05-07 18:55:00,77.9,44.8,29.84,NNW,333,8.1,8.1,31,0.00,CLR,SCT,0.00,WeatherDisplay:10.37,2013-05-08 01:55:00,
2013-05-07 19:00:00,77.7,44.7,29.84,West,280,15.0,15.0,31,0.00,CLR,SCT,0.00,WeatherDisplay:10.37,2013-05-08 02:00:00,
2013-05-07 19:06:00,77.4,44.4,29.84,WNW,283,8.0,8.0,31,0.00,CLR,SCT,0.00,WeatherDisplay:10.37,2013-05-08 02:06:00,
2013-05-07 19:11:00,77.4,44.4,29.84,West,271,9.2,9.2,31,0.00,CLR,SCT,0.00,WeatherDisplay:10.37,2013-05-08 02:11:00,
2013-05-07 19:16:00,77.4,44.4,29.84,West,266,9.2,9.2,31,0.00,CLR,SCT,0.00,WeatherDisplay:10.37,2013-05-08 02:16:00,
2013-05-07 19:21:00,77.2,44.2,29.84,West,263,11.5,11.5,31,0.00,CLR,SCT,0.00,WeatherDisplay:10.37,2013-05-08 02:21:00,
2013-05-07 19:26:00,77.2,44.2,29.84,WNW,292,12.7,12.7,31,0.00,CLR,SCT,0.00,WeatherDisplay:10.37,2013-05-08 02:26:00,
2013-05-07 19:31:00,77.4,44.4,29.84,West,264,15.0,15.0,31,0.00,CLR,SCT,0.00,WeatherDisplay:10.37,2013-05-08 02:31:00,
2013-05-07 19:36:00,77.0,44.0,29.84,West,279,9.2,9.2,31,0.00,CLR,SCT,0.00,WeatherDisplay:10.37,2013-05-08 02:36:00,
2013-05-07 19:42:00,76.6,43.7,29.84,WNW,292,17.3,17.3,31,0.00,CLR,SCT,0.00,WeatherDisplay:10.37,2013-05-08 02:42:00,
2013-05-07 19:47:00,76.3,43.4,29.84,WNW,283,15.0,15.0,31,0.00,CLR,SCT,0.00,WeatherDisplay:10.37,2013-05-08 02:47:00,
2013-05-07 19:52:00,75.6,42.8,29.84,West,267,14.1,14.1,31,0.00,CLR,SCT,0.00,WeatherDisplay:10.37,2013-05-08 02:52:00,
2013-05-07 19:57:00,75.0,42.3,29.84,West,261,12.7,12.7,31,0.00,CLR,SCT,0.00,WeatherDisplay:10.37,2013-05-08 02:57:00,
2013-05-07 20:02:00,74.7,42.0,29.84,WSW,254,12.7,12.7,31,0.00,CLR,SCT,0.00,WeatherDisplay:10.37,2013-05-08 03:02:00,
2013-05-07 20:07:00,73.9,41.4,29.84,West,262,13.8,13.8,31,0.00,CLR,SCT,0.00,WeatherDisplay:10.37,2013-05-08 03:07:00,
2013-05-07 20:13:00,73.6,41.1,29.84,WSW,256,15.4,15.4,31,0.00,CLR,SCT,0.00,WeatherDisplay:10.37,2013-05-08 03:13:00,
2013-05-07 20:18:00,73.0,41.4,29.84,West,272,12.7,12.7,32,0.00,CLR,SCT,0.00,WeatherDisplay:10.37,2013-05-08 03:18:00,
2013-05-07 20:23:00,72.7,41.1,29.84,West,280,12.7,12.7,32,0.00,CLR,SCT,0.00,WeatherDisplay:10.37,2013-05-08 03:23:00,
2013-05-07 20:28:00,72.1,40.6,29.84,West,281,11.5,11.5,32,0.00,CLR,SCT,0.00,WeatherDisplay:10.37,2013-05-08 03:28:00,
2013-05-07 20:33:00,71.8,40.3,29.84,West,266,10.4,10.4,32,0.00,CLR,SCT,0.00,WeatherDisplay:10.37,2013-05-08 03:33:00,
2013-05-07 20:38:00,71.2,39.9,29.84,West,267,9.2,9.2,32,0.00,CLR,SCT,0.00,WeatherDisplay:10.37,2013-05-08 03:38:00,
2013-05-07 20:43:00,70.7,39.4,29.84,West,269,12.7,12.7,32,0.00,CLR,SCT,0.00,WeatherDisplay:10.37,2013-05-08 03:43:00,
2013-05-07 20:48:00,70.2,38.9,29.84,WSW,250,8.1,8.1,32,0.00,CLR,SCT,0.00,WeatherDisplay:10.37,2013-05-08 03:48:00,
2013-05-07 20:53:00,69.8,39.4,29.87,WSW,239,8.1,8.1,33,0.00,CLR,SCT,0.00,WeatherDisplay:10.37,2013-05-08 03:53:00,
2013-05-07 20:59:00,68.9,38.6,29.87,WSW,253,12.7,12.7,33,0.00,CLR,SCT,0.00,WeatherDisplay:10.37,2013-05-08 03:59:00,
2013-05-07 21:01:00,68.7,38.4,29.87,WSW,244,10.5,10.5,33,0.00,CLR,SCT,0.00,WeatherDisplay:10.37,2013-05-08 04:01:00,
2013-05-07 21:03:00,68.5,38.3,29.87,WSW,249,12.7,12.7,33,0.00,CLR,SCT,0.00,WeatherDisplay:10.37,2013-05-08 04:03:00,
2013-05-07 21:08:00,68.0,37.8,29.87,WSW,250,10.5,10.5,33,0.00,CLR,SCT,0.00,WeatherDisplay:10.37,2013-05-08 04:08:00,
2013-05-07 21:10:00,67.6,38.3,29.87,WSW,256,12.7,12.7,34,0.00,CLR,SCT,0.00,WeatherDisplay:10.37,2013-05-08 04:10:00,
2013-05-07 21:15:00,67.5,38.1,29.87,West,270,8.1,8.3,34,0.00,CLR,SCT,0.00,WeatherDisplay:10.37,2013-05-08 04:15:00,
2013-05-07 21:20:00,67.1,37.8,29.87,West,263,11.5,11.5,34,0.00,CLR,SCT,0.00,WeatherDisplay:10.37,2013-05-08 04:20:00,
2013-05-07 21:25:00,66.7,37.5,29.87,WSW,245,11.5,11.5,34,0.00,CLR,SCT,0.00,WeatherDisplay:10.37,2013-05-08 04:25:00,
2013-05-07 21:31:00,66.4,37.1,29.87,West,264,9.2,9.2,34,0.00,CLR,SCT,0.00,WeatherDisplay:10.37,2013-05-08 04:31:00,
2013-05-07 21:36:00,66.2,37.7,29.87,WSW,252,9.2,9.2,35,0.00,CLR,SCT,0.00,WeatherDisplay:10.37,2013-05-08 04:36:00,
2013-05-07 21:41:00,65.8,37.4,29.90,West,273,10.4,10.4,35,0.00,CLR,SCT,0.00,WeatherDisplay:10.37,2013-05-08 04:41:00,
2013-05-07 21:46:00,65.7,37.2,29.90,WSW,251,11.5,11.5,35,0.00,CLR,SCT,0.00,WeatherDisplay:10.37,2013-05-08 04:46:00,
2013-05-07 21:51:00,65.5,37.1,29.90,West,263,12.7,12.7,35,0.00,CLR,SCT,0.00,WeatherDisplay:10.37,2013-05-08 04:51:00,
2013-05-07 21:57:00,65.1,36.8,29.90,West,263,9.2,9.2,35,0.00,CLR,SCT,0.00,WeatherDisplay:10.37,2013-05-08 04:57:00,
2013-05-07 22:02:00,64.9,37.3,29.90,WSW,256,12.7,12.7,36,0.00,CLR,SCT,0.00,WeatherDisplay:10.37,2013-05-08 05:02:00,
2013-05-07 22:07:00,64.6,37.0,29.90,WSW,251,9.2,9.2,36,0.00,CLR,SCT,0.00,WeatherDisplay:10.37,2013-05-08 05:07:00,
2013-05-07 22:12:00,64.4,36.8,29.90,WSW,239,8.1,8.1,36,0.00,CLR,SCT,0.00,WeatherDisplay:10.37,2013-05-08 05:12:00,
2013-05-07 22:17:00,64.0,36.5,29.90,SW,223,5.8,6.3,36,0.00,CLR,SCT,0.00,WeatherDisplay:10.37,2013-05-08 05:17:00,
2013-05-07 22:23:00,63.9,36.4,29.90,SSW,199,5.8,5.8,36,0.00,CLR,SCT,0.00,WeatherDisplay:10.37,2013-05-08 05:23:00,
2013-05-07 22:28:00,63.5,36.7,29.93,SSW,204,5.8,5.8,37,0.00,CLR,SCT,0.00,WeatherDisplay:10.37,2013-05-08 05:28:00,
2013-05-07 22:33:00,63.1,36.4,29.93,SSW,209,5.8,5.8,37,0.00,CLR,SCT,0.00,WeatherDisplay:10.37,2013-05-08 05:33:00,
2013-05-07 22:38:00,62.8,36.1,29.93,SSW,196,3.5,4.0,37,0.00,CLR,SCT,0.00,WeatherDisplay:10.37,2013-05-08 05:38:00,
2013-05-07 22:43:00,62.6,35.9,29.93,South,175,5.8,5.8,37,0.00,CLR,SCT,0.00,WeatherDisplay:10.37,2013-05-08 05:43:00,
2013-05-07 22:49:00,62.1,36.1,29.93,SSE,166,6.9,6.9,38,0.00,CLR,SCT,0.00,WeatherDisplay:10.37,2013-05-08 05:49:00,
2013-05-07 22:54:00,61.9,36.0,29.93,SSW,207,8.1,8.1,38,0.00,CLR,SCT,0.00,WeatherDisplay:10.37,2013-05-08 05:54:00,
2013-05-07 22:59:00,61.9,36.0,29.93,SW,220,8.1,8.1,38,0.00,CLR,SCT,0.00,WeatherDisplay:10.37,2013-05-08 05:59:00,
2013-05-07 23:04:00,61.7,35.8,29.93,SSW,212,3.5,4.0,38,0.00,CLR,SCT,0.00,WeatherDisplay:10.37,2013-05-08 06:04:00,
2013-05-07 23:09:00,61.9,36.0,29.93,South,169,5.8,5.8,38,0.00,CLR,SCT,0.00,WeatherDisplay:10.37,2013-05-08 06:09:00,
2013-05-07 23:14:00,61.7,35.8,29.93,South,185,6.0,9.0,38,0.00,CLR,SCT,0.00,WeatherDisplay:10.37,2013-05-08 06:14:00,
2013-05-07 23:20:00,61.5,35.7,29.93,SSW,204,5.8,5.8,38,0.00,CLR,SCT,0.00,WeatherDisplay:10.37,2013-05-08 06:20:00,
2013-05-07 23:25:00,61.3,34.8,29.93,SW,231,5.8,5.8,37,0.00,CLR,SCT,0.00,WeatherDisplay:10.37,2013-05-08 06:25:00,
2013-05-07 23:30:00,61.2,35.3,29.93,SE,138,3.5,3.6,38,0.00,CLR,SCT,0.00,WeatherDisplay:10.37,2013-05-08 06:30:00,
2013-05-07 23:35:00,61.0,35.2,29.93,SSW,194,3.5,4.0,38,0.00,CLR,SCT,0.00,WeatherDisplay:10.37,2013-05-08 06:35:00,
2013-05-07 23:40:00,60.8,35.0,29.93,SSE,157,5.8,5.8,38,0.00,CLR,SCT,0.00,WeatherDisplay:10.37,2013-05-08 06:40:00,
2013-05-07 23:46:00,60.6,35.5,29.93,SE,144,5.8,5.8,39,0.00,CLR,SCT,0.00,WeatherDisplay:10.37,2013-05-08 06:46:00,
2013-05-07 23:51:00,60.4,35.3,29.93,SE,139,3.5,3.5,39,0.00,CLR,SCT,0.00,WeatherDisplay:10.37,2013-05-08 06:51:00,
2013-05-07 23:56:00,60.3,35.2,29.93,SE,139,0.0,0.0,39,0.00,CLR,SCT,0.00,WeatherDisplay:10.37,2013-05-08 06:56:00,